Location: Observatory
(52.1446°N, 0.4624°W)
Time: 05:02:30
(UTC+01:00)

ISS - Pass Details

Date: 24 May 2018
Orbit: 402 x 407 km, 51.6° (Epoch: 24 May)

Event Time Altitude Azimuth Distance (km) Brightness Sun altitude
Rises 21:49:32 0° 235° (SW) 2,315 0.1 -6.2°
Reaches altitude 10° 21:51:40 10° 228° (SW) 1,457 -1.0 -6.4°
Maximum altitude 21:54:46 40° 157° (SSE) 605 -3.4 -6.7°
Drops below altitude 10° 21:57:52 10° 85° (E) 1,460 -1.4 -7.0°
Sets 22:00:01 0° 78° (ENE) 2,321 -0.3 -7.3°
